Weather History for Fort Knox, KY

Change the Weather History Date:

Saturday, February 9, 2013

  Actual Average Record
Temperature  
Mean Temperature 37 °F -  
Max Temperature 46 °F 44 °F 68 °F (2001)
Min Temperature 28 °F 27 °F 12 °F (2011)
Degree Days  
Heating Degree Days 28    
Moisture  
Dew Point 24 °F    
Average Humidity 65    
Maximum Humidity 86    
Minimum Humidity 40    
Precipitation  
Precipitation 0.00 in - - ()
Sea Level Pressure  
Sea Level Pressure 30.32 in    
Wind  
Wind Speed 5 mph (ENE)    
Max Wind Speed 9 mph    
Max Gust Speed -    
Visibility 10 miles    
Events      
Averages and records for this station are not official NWS values.
T = Trace of Precipitation, MM = Missing Value Source: NWS Daily Summary

Daily Weather History Graph

Daily Weather History Graph

Search for Another Location

Airport:

Trip Planner

Search our weather history database for the weather conditions in past years. The results will help you decide how hot, cold, wet, or windy it might be!

Date:

Astronomy

Feb. 09, 2013 Rise Set
Actual Time 7:40 AM EST 6:16 PM EST
Civil Twilight 7:12 AM EST 6:43 PM EST
Nautical Twilight 6:41 AM EST 7:14 PM EST
Astronomical Twilight 6:11 AM EST 7:45 PM EST
Moon 6:51 AM EST (2/9) 5:57 PM EST (2/9)
Length of Visible Light 11h 30m
Length of Day
10h 36m
Waning Crescent, 0% of the Moon is Illuminated
Feb 9
Waning Crescent
Feb 10
New
Feb 17
First Quarter
Feb 25
Full
Mar 4
Last Quarter

Hourly Weather History & Observations

Time (EST) Temp. Windchill Dew Point Humidity Pressure Visibility Wind Dir Wind Speed Gust Speed Precip Events Conditions
12:13 AM 28.4 °F 23.3 °F 24.8 °F 86% 30.36 in 10.0 mi NW 4.6 mph - N/A   Mostly Cloudy
12:55 AM 31.5 °F - 26.8 °F 83% 30.36 in 10.0 mi Calm Calm - N/A   Overcast
1:55 AM 32.0 °F 28.7 °F 26.4 °F 80% 30.36 in 10.0 mi NW 3.5 mph - N/A   Overcast
2:55 AM 32.0 °F 28.7 °F 26.6 °F 80% 30.37 in 10.0 mi NNW 3.5 mph - N/A   Overcast
3:55 AM 32.4 °F 29.1 °F 25.2 °F 75% 30.37 in 10.0 mi NE 3.5 mph - N/A   Overcast
4:55 AM 32.2 °F 28.9 °F 25.5 °F 76% 30.36 in 10.0 mi NNE 3.5 mph - N/A   Overcast
5:55 AM 31.5 °F 24.9 °F 24.4 °F 75% 30.37 in 10.0 mi ENE 6.9 mph - N/A   Overcast
6:29 AM 30.2 °F - 23.0 °F 75% 30.38 in 10.0 mi Calm Calm - N/A   Scattered Clouds
6:31 AM 30.2 °F - 23.0 °F 75% 30.38 in 10.0 mi Calm Calm - N/A   Mostly Cloudy
6:40 AM 30.2 °F 25.4 °F 23.0 °F 75% 30.38 in 10.0 mi NE 4.6 mph - N/A   Scattered Clouds
6:55 AM 28.2 °F 23.1 °F 22.8 °F 80% 30.39 in 10.0 mi NNE 4.6 mph - N/A   Partly Cloudy
7:55 AM 28.0 °F - 22.5 °F 80% 30.40 in 10.0 mi NNE 2.3 mph - N/A   Partly Cloudy
8:55 AM 30.0 °F 21.7 °F 23.5 °F 77% 30.40 in 10.0 mi ENE 9.2 mph - N/A   Clear
9:55 AM 33.3 °F 27.1 °F 25.2 °F 72% 30.38 in 10.0 mi East 6.9 mph - N/A   Clear
10:55 AM 35.8 °F 29.4 °F 25.3 °F 66% 30.40 in 10.0 mi East 8.1 mph - N/A   Clear
11:55 AM 38.7 °F 35.2 °F 24.6 °F 57% 30.39 in 10.0 mi SE 4.6 mph - N/A   Clear
12:55 PM 41.5 °F 36.4 °F 25.0 °F 52% 30.36 in 10.0 mi East 8.1 mph - N/A   Clear
1:55 PM 43.9 °F 40.5 °F 24.1 °F 46% 30.32 in 10.0 mi ESE 5.8 mph - N/A   Clear
2:55 PM 46.2 °F 44.1 °F 23.5 °F 41% 30.29 in 10.0 mi ESE 4.6 mph - N/A   Clear
3:55 PM 46.8 °F - 23.2 °F 40% 30.27 in 10.0 mi SE 9.2 mph - N/A   Clear
4:55 PM 46.2 °F 41.7 °F 23.5 °F 41% 30.26 in 10.0 mi ESE 9.2 mph - N/A   Clear
5:55 PM 43.5 °F 38.3 °F 24.1 °F 46% 30.25 in 10.0 mi East 9.2 mph - N/A   Clear
6:55 PM 40.8 °F 35.6 °F 24.1 °F 51% 30.24 in 10.0 mi East 8.1 mph - N/A   Clear
7:55 PM 39.0 °F 35.7 °F 23.0 °F 53% 30.24 in 10.0 mi ENE 4.6 mph - N/A   Partly Cloudy
8:55 PM 38.1 °F 32.9 °F 23.2 °F 55% 30.22 in 10.0 mi ENE 6.9 mph - N/A   Clear
9:55 PM 37.9 °F 35.5 °F 24.6 °F 59% 30.22 in 10.0 mi NE 3.5 mph - N/A   Overcast
10:55 PM 37.8 °F 32.5 °F 23.7 °F 57% 30.19 in 10.0 mi ENE 6.9 mph - N/A   Overcast
11:55 PM 37.2 °F 31.9 °F 23.9 °F 59% 30.17 in 10.0 mi ENE 6.9 mph - N/A   Overcast